Regional Weather Roundup
Issued by NWS Kansas City/Pleasant Hill, MO

Home | Current Version | Previous Version | Graphics & Text | Print | Product List | Glossary Off
Versions: 1 2 3 4 5 6 7 8 9 10 11 12 13 14 15 16 17 18 19 20 21 22 23 24 25 26 27 28 29 30 31 32 33 34 35 36 37 38 39 40 41 42 43 44 45 46 47 48 49 50

000
ASUS43 KEAX 230910
RWREAX

WEATHER ROUNDUP FOR EASTERN KANSAS AND NORTHWEST MISSOURI
NATIONAL WEATHER SERVICE KANSAS CITY/PLEASANT HILL MO
400 AM CDT SAT AUG 23 2014

KSZ040-057-103>105-MOZ028-029-037-043-231000-
...KANSAS CITY METROPOLITAN AREA...

CITY           SKY/WX    TMP DP  RH WIND       PRES   REMARKS
K.C. INTL      PTCLDY    78  71  79 S10       29.89F
K.C. DOWNTOWN  MOCLDY    81  71  71 S9        29.88F
LEES SUMMIT    CLEAR     78  70  76 S9        29.91F
OLATHE - IXD   CLEAR     77  72  84 S8        29.91F
OLATHE - OJC   CLEAR     77  71  82 S8        29.90F
LAWRENCE       PTCLDY    78  70  76 SE5       29.89F

$$

MOZ001>008-011>017-020>025-030>033-038>040-044>046-053-054-231000-
...NORTHERN AND CENTRAL MISSOURI...

CITY           SKY/WX    TMP DP  RH WIND       PRES   REMARKS
ST. JOSEPH     CLOUDY    78  74  87 S9        29.87F
MOSBY          SUNNY     77  73  88 SE3       29.89F
WHITEMAN AFB   CLEAR     74  68  81 S8        29.92S
CLINTON        CLEAR     79  73  83 S6        29.94S
SEDALIA        CLEAR     78  71  79 S7        29.94F
WARSAW         NOT AVBL
MARSHALL       CLEAR     79  79 100 S3        29.92F FOG
CHILLICOTHE      N/A     79  76  90 S6        29.90F
MOBERLY        CLEAR     77  73  88 SE6       29.93F FOG
KIRKSVILLE     PTCLDY    78  75  90 E8        29.94F

$$

MOZ041-047>049-056>058-063>065-088>090-097-231000-
...EASTERN AND SOUTHERN MISSOURI...

CITY           SKY/WX    TMP DP  RH WIND       PRES   REMARKS
ST. LOUIS INTL MOCLDY    81  77  88 CALM      29.93S
SPIRIT OF STL  PTCLDY    76  74  93 CALM      29.91F
COLUMBIA       CLEAR     74  74 100 S5        29.94S
JEFFERSON CITY CLEAR     76  74  93 SE3       29.93S
MEXICO         FOG      N/A N/A N/A CALM      29.93S VSB 1/2
HANNIBAL       CLEAR     79  75  89 SE3       29.92F FOG
ROLLA          CLEAR     74  69  85 S8        29.97S
LEBANON        CLEAR     79  72  78 SW6       30.00S
OSAGE BEACH    CLEAR     73  70  88 CALM      29.96S
SPRINGFIELD    CLEAR     77  72  84 S7        29.99S
BRANSON        CLEAR     75  73  94 S3        30.01F
NEVADA         CLEAR     75  70  83 S8        29.95F
JOPLIN         CLEAR     80  69  69 S14       29.96S
WEST PLAINS    CLEAR     76  71  85 W3        30.02S

$$

IAZ060-094-KSZ022-034>040-054-083-096-NEZ052-066-093-231000-
...KANSAS...SOUTHEAST NEBRASKA AND IOWA...

CITY           SKY/WX    TMP DP  RH WIND       PRES   REMARKS
TOPEKA         CLEAR     81  70  69 S6        29.87F
MANHATTAN      MOCLDY    82  66  58 SW15      29.84F
EMPORIA        CLEAR     74  67  78 S14       29.89F
CHANUTE        CLEAR     78  69  73 S10       29.93S
WICHITA        PTCLDY    76  63  64 S10       29.89F
OMAHA          LGT RAIN  72  68  87 NE9       29.96R
LINCOLN        LGT RAIN  70  68  93 N8        29.91F
FALLS CITY     CLOUDY    77  74  90 NW9       29.90R
LAMONI         MOCLDY    78  76  93 S8        29.88F
DES MOINES     FOG       77  76  96 NE9       29.88S THUNDER VSB 1/2

$$



USA.gov is the U.S. government's official web portal to all federal, state and local government web resources and services.